Data supplied by UK-AIR on 3/7/2012
All Data GMT hour ending  NB:  Upto 26/02/2009 PM10 were measured with a VCM TEOM, from 26/11/2008 PM10 were measured with a TEOM FDMS
Status: R =Ratified P=Provisional,P*=As supplied
,,Salford Eccles,,,,,,,,,,,,,,,,,,,,,,,
Date,time,"Carbon monoxide",status,unit,"PM<sub>10</sub> particulate matter (Hourly measured)",status,unit,"Nitric oxide",status,unit,"Nitrogen dioxide",status,unit,"Nitrogen oxides as nitrogen dioxide",status,unit,"Non-volatile PM<sub>2.5</sub> (Hourly measured)",status,unit,"Ozone",status,unit,"PM<sub>2.5</sub> particulate matter (Hourly measured)",status,unit,"Sulphur dioxide",status,unit,"Volatile PM<sub>2.5</sub> (Hourly measured)",status,unit
 
01-01-2008,01:00,0.1,R,mgm-3,21,R,ugm-3 (GRAV EQ),0,R,ugm-3,25,R,ugm-3,25,R,ugm-3,,,,,,,,,,5,R,ugm-3,,,
01-01-2008,02:00,,,,,,,,,,,,,,,,,,,,,,,,,,,,,,
01-01-2008,03:00,,,,18,R,ugm-3 (GRAV EQ),0,R,ugm-3,17,R,ugm-3,17,R,ugm-3,,,,32,R,ugm-3,,,,5,R,ugm-3,,,
01-01-2008,04:00,0.1,R,mgm-3,14,R,ugm-3 (GRAV EQ),0,R,ugm-3,15,R,ugm-3,15,R,ugm-3,,,,36,R,ugm-3,,,,3,R,ugm-3,,,
01-01-2008,05:00,0.1,R,mgm-3,13,R,ugm-3 (GRAV EQ),0,R,ugm-3,19,R,ugm-3,19,R,ugm-3,,,,34,R,ugm-3,,,,3,R,ugm-3,,,
01-01-2008,06:00,0.1,R,mgm-3,12,R,ugm-3 (GRAV EQ),0,R,ugm-3,17,R,ugm-3,17,R,ugm-3,,,,32,R,ugm-3,,,,3,R,ugm-3,,,
01-01-2008,07:00,0.1,R,mgm-3,14,R,ugm-3 (GRAV EQ),0,R,ugm-3,23,R,ugm-3,23,R,ugm-3,,,,28,R,ugm-3,,,,5,R,ugm-3,,,
01-01-2008,08:00,0.1,R,mgm-3,13,R,ugm-3 (GRAV EQ),0,R,ugm-3,21,R,ugm-3,21,R,ugm-3,,,,26,R,ugm-3,,,,5,R,ugm-3,,,
01-01-2008,09:00,0.1,R,mgm-3,14,R,ugm-3 (GRAV EQ),0,R,ugm-3,25,R,ugm-3,25,R,ugm-3,,,,22,R,ugm-3,,,,5,R,ugm-3,,,
01-01-2008,10:00,0.1,R,mgm-3,14,R,ugm-3 (GRAV EQ),0,R,ugm-3,21,R,ugm-3,21,R,ugm-3,,,,24,R,ugm-3,,,,5,R,ugm-3,,,
01-01-2008,11:00,0.1,R,mgm-3,16,R,ugm-3 (GRAV EQ),1,R,ugm-3,21,R,ugm-3,23,R,ugm-3,,,,22,R,ugm-3,,,,3,R,ugm-3,,,
01-01-2008,12:00,0.1,R,mgm-3,14,R,ugm-3 (GRAV EQ),3,R,ugm-3,25,R,ugm-3,29,R,ugm-3,,,,20,R,ugm-3,,,,3,R,ugm-3,,,
01-01-2008,13:00,0.1,R,mgm-3,17,R,ugm-3 (GRAV EQ),3,R,ugm-3,23,R,ugm-3,27,R,ugm-3,,,,22,R,ugm-3,,,,5,R,ugm-3,,,
01-01-2008,14:00,0.1,R,mgm-3,17,R,ugm-3 (GRAV EQ),3,R,ugm-3,23,R,ugm-3,27,R,ugm-3,,,,28,R,ugm-3,,,,3,R,ugm-3,,,
01-01-2008,15:00,0.1,R,mgm-3,16,R,ugm-3 (GRAV EQ),1,R,ugm-3,29,R,ugm-3,31,R,ugm-3,,,,28,R,ugm-3,,,,3,R,ugm-3,,,
01-01-2008,16:00,0.1,R,mgm-3,17,R,ugm-3 (GRAV EQ),1,R,ugm-3,32,R,ugm-3,34,R,ugm-3,,,,22,R,ugm-3,,,,3,R,ugm-3,,,
01-01-2008,17:00,0.1,R,mgm-3,20,R,ugm-3 (GRAV EQ),1,R,ugm-3,29,R,ugm-3,31,R,ugm-3,,,,20,R,ugm-3,,,,3,R,ugm-3,,,
01-01-2008,18:00,0.2,R,mgm-3,30,R,ugm-3 (GRAV EQ),8,R,ugm-3,44,R,ugm-3,55,R,ugm-3,,,,6,R,ugm-3,,,,5,R,ugm-3,,,
01-01-2008,19:00,0.2,R,mgm-3,26,R,ugm-3 (GRAV EQ),9,R,ugm-3,46,R,ugm-3,59,R,ugm-3,,,,6,R,ugm-3,,,,5,R,ugm-3,,,
01-01-2008,20:00,0.2,R,mgm-3,17,R,ugm-3 (GRAV EQ),3,R,ugm-3,42,R,ugm-3,46,R,ugm-3,,,,10,R,ugm-3,,,,3,R,ugm-3,,,
01-01-2008,21:00,0.1,R,mgm-3,14,R,ugm-3 (GRAV EQ),3,R,ugm-3,40,R,ugm-3,44,R,ugm-3,,,,14,R,ugm-3,,,,3,R,ugm-3,,,
01-01-2008,22:00,0.1,R,mgm-3,13,R,ugm-3 (GRAV EQ),1,R,ugm-3,40,R,ugm-3,42,R,ugm-3,,,,20,R,ugm-3,,,,5,R,ugm-3,,,
01-01-2008,23:00,0.1,R,mgm-3,17,R,ugm-3 (GRAV EQ),1,R,ugm-3,40,R,ugm-3,42,R,ugm-3,,,,16,R,ugm-3,,,,3,R,ugm-3,,,
01-01-2008,24:00,0.1,R,mgm-3,17,R,ugm-3 (GRAV EQ),1,R,ugm-3,40,R,ugm-3,42,R,ugm-3,,,,16,R,ugm-3,,,,3,R,ugm-3,,,
02-01-2008,01:00,0.1,R,mgm-3,17,R,ugm-3 (GRAV EQ),3,R,ugm-3,38,R,ugm-3,42,R,ugm-3,,,,14,R,ugm-3,,,,3,R,ugm-3,,,
02-01-2008,02:00,,,,18,R,ugm-3 (GRAV EQ),,,,,,,,,,,,,,,,,,,,,,,,
02-01-2008,03:00,,,,14,R,ugm-3 (GRAV EQ),,,,,,,,,,,,,26,R,ugm-3,,,,0,R,ugm-3,,,
02-01-2008,04:00,,,,16,R,ugm-3 (GRAV EQ),,,,,,,,,,,,,,,,,,,,,,,,
02-01-2008,05:00,,,,,,,,,,,,,,,,,,,,,,,,,,,,,,
02-01-2008,06:00,,,,17,R,ugm-3 (GRAV EQ),26,R,ugm-3,48,R,ugm-3,88,R,ugm-3,,,,4,R,ugm-3,,,,5,R,ugm-3,,,
02-01-2008,07:00,0.1,R,mgm-3,12,R,ugm-3 (GRAV EQ),9,R,ugm-3,36,R,ugm-3,50,R,ugm-3,,,,4,R,ugm-3,,,,3,R,ugm-3,,,
02-01-2008,08:00,0.1,R,mgm-3,22,R,ugm-3 (GRAV EQ),6,R,ugm-3,27,R,ugm-3,36,R,ugm-3,,,,18,R,ugm-3,,,,3,R,ugm-3,,,
02-01-2008,09:00,0.2,R,mgm-3,29,R,ugm-3 (GRAV EQ),13,R,ugm-3,34,R,ugm-3,53,R,ugm-3,,,,12,R,ugm-3,,,,3,R,ugm-3,,,
02-01-2008,10:00,0.2,R,mgm-3,27,R,ugm-3 (GRAV EQ),10,R,ugm-3,31,R,ugm-3,46,R,ugm-3,,,,10,R,ugm-3,,,,3,R,ugm-3,,,
02-01-2008,11:00,0.2,R,mgm-3,26,R,ugm-3 (GRAV EQ),10,R,ugm-3,29,R,ugm-3,44,R,ugm-3,,,,14,R,ugm-3,,,,3,R,ugm-3,,,
02-01-2008,12:00,0.2,R,mgm-3,26,R,ugm-3 (GRAV EQ),11,R,ugm-3,29,R,ugm-3,46,R,ugm-3,,,,14,R,ugm-3,,,,3,R,ugm-3,,,
02-01-2008,13:00,0.2,R,mgm-3,29,R,ugm-3 (GRAV EQ),10,R,ugm-3,32,R,ugm-3,48,R,ugm-3,,,,14,R,ugm-3,,,,3,R,ugm-3,,,
02-01-2008,14:00,0.2,R,mgm-3,22,R,ugm-3 (GRAV EQ),11,R,ugm-3,31,R,ugm-3,48,R,ugm-3,,,,16,R,ugm-3,,,,3,R,ugm-3,,,
02-01-2008,15:00,0.2,R,mgm-3,18,R,ugm-3 (GRAV EQ),11,R,ugm-3,34,R,ugm-3,52,R,ugm-3,,,,18,R,ugm-3,,,,3,R,ugm-3,,,
02-01-2008,16:00,0.1,R,mgm-3,18,R,ugm-3 (GRAV EQ),10,R,ugm-3,36,R,ugm-3,52,R,ugm-3,,,,20,R,ugm-3,,,,3,R,ugm-3,,,
02-01-2008,17:00,0.2,R,mgm-3,21,R,ugm-3 (GRAV EQ),9,R,ugm-3,44,R,ugm-3,57,R,ugm-3,,,,20,R,ugm-3,,,,3,R,ugm-3,,,
02-01-2008,18:00,0.2,R,mgm-3,20,R,ugm-3 (GRAV EQ),6,R,ugm-3,46,R,ugm-3,55,R,ugm-3,,,,20,R,ugm-3,,,,3,R,ugm-3,,,
02-01-2008,19:00,0.1,R,mgm-3,18,R,ugm-3 (GRAV EQ),4,R,ugm-3,38,R,ugm-3,44,R,ugm-3,,,,28,R,ugm-3,,,,5,R,ugm-3,,,
02-01-2008,20:00,0.1,R,mgm-3,13,R,ugm-3 (GRAV EQ),3,R,ugm-3,23,R,ugm-3,27,R,ugm-3,,,,42,R,ugm-3,,,,3,R,ugm-3,,,
02-01-2008,21:00,0.1,R,mgm-3,14,R,ugm-3 (GRAV EQ),3,R,ugm-3,21,R,ugm-3,25,R,ugm-3,,,,44,R,ugm-3,,,,0,R,ugm-3,,,
02-01-2008,22:00,0.1,R,mgm-3,12,R,ugm-3 (GRAV EQ),1,R,ugm-3,17,R,ugm-3,19,R,ugm-3,,,,48,R,ugm-3,,,,0,R,ugm-3,,,
02-01-2008,23:00,0.1,R,mgm-3,13,R,ugm-3 (GRAV EQ),1,R,ugm-3,17,R,ugm-3,19,R,ugm-3,,,,46,R,ugm-3,,,,0,R,ugm-3,,,
02-01-2008,24:00,0.1,R,mgm-3,9,R,ugm-3 (GRAV EQ),0,R,ugm-3,15,R,ugm-3,15,R,ugm-3,,,,44,R,ugm-3,,,,0,R,ugm-3,,,
03-01-2008,01:00,0.1,R,mgm-3,10,R,ugm-3 (GRAV EQ),0,R,ugm-3,17,R,ugm-3,17,R,ugm-3,,,,42,R,ugm-3,,,,0,R,ugm-3,,,
03-01-2008,02:00,,,,7,R,ugm-3 (GRAV EQ),,,,,,,,,,,,,,,,,,,,,,,,
03-01-2008,03:00,,,,8,R,ugm-3 (GRAV EQ),0,R,ugm-3,19,R,ugm-3,19,R,ugm-3,,,,42,R,ugm-3,,,,3,R,ugm-3,,,
03-01-2008,04:00,,,,,,,,,,,,,,,,,,,,,,,,,,,,,,
03-01-2008,05:00,0.1,R,mgm-3,12,R,ugm-3 (GRAV EQ),1,R,ugm-3,19,R,ugm-3,21,R,ugm-3,,,,40,R,ugm-3,,,,3,R,ugm-3,,,
03-01-2008,06:00,0.1,R,mgm-3,12,R,ugm-3 (GRAV EQ),1,R,ugm-3,15,R,ugm-3,17,R,ugm-3,,,,46,R,ugm-3,,,,3,R,ugm-3,,,
03-01-2008,07:00,0.1,R,mgm-3,17,R,ugm-3 (GRAV EQ),4,R,ugm-3,27,R,ugm-3,32,R,ugm-3,,,,34,R,ugm-3,,,,3,R,ugm-3,,,
03-01-2008,08:00,0.1,R,mgm-3,21,R,ugm-3 (GRAV EQ),8,R,ugm-3,36,R,ugm-3,48,R,ugm-3,,,,26,R,ugm-3,,,,3,R,ugm-3,,,
03-01-2008,09:00,0.1,R,mgm-3,20,R,ugm-3 (GRAV EQ),5,R,ugm-3,36,R,ugm-3,44,R,ugm-3,,,,26,R,ugm-3,,,,3,R,ugm-3,,,
03-01-2008,10:00,0.1,R,mgm-3,16,R,ugm-3 (GRAV EQ),10,R,ugm-3,44,R,ugm-3,59,R,ugm-3,,,,18,R,ugm-3,,,,3,R,ugm-3,,,
03-01-2008,11:00,0.1,R,mgm-3,20,R,ugm-3 (GRAV EQ),14,R,ugm-3,46,R,ugm-3,67,R,ugm-3,,,,16,R,ugm-3,,,,5,R,ugm-3,,,
03-01-2008,12:00,0.1,R,mgm-3,23,R,ugm-3 (GRAV EQ),14,R,ugm-3,48,R,ugm-3,69,R,ugm-3,,,,14,R,ugm-3,,,,5,R,ugm-3,,,
03-01-2008,13:00,0.1,R,mgm-3,27,R,ugm-3 (GRAV EQ),14,R,ugm-3,46,R,ugm-3,67,R,ugm-3,,,,16,R,ugm-3,,,,5,R,ugm-3,,,
03-01-2008,14:00,0.2,R,mgm-3,26,R,ugm-3 (GRAV EQ),18,R,ugm-3,48,R,ugm-3,74,R,ugm-3,,,,14,R,ugm-3,,,,5,R,ugm-3,,,
03-01-2008,15:00,0.1,R,mgm-3,27,R,ugm-3 (GRAV EQ),13,R,ugm-3,40,R,ugm-3,59,R,ugm-3,,,,18,R,ugm-3,,,,5,R,ugm-3,,,
03-01-2008,16:00,0.1,R,mgm-3,29,R,ugm-3 (GRAV EQ),13,R,ugm-3,42,R,ugm-3,61,R,ugm-3,,,,16,R,ugm-3,,,,5,R,ugm-3,,,
03-01-2008,17:00,0.2,R,mgm-3,29,R,ugm-3 (GRAV EQ),8,R,ugm-3,38,R,ugm-3,50,R,ugm-3,,,,20,R,ugm-3,,,,5,R,ugm-3,,,
03-01-2008,18:00,0.2,R,mgm-3,29,R,ugm-3 (GRAV EQ),10,R,ugm-3,46,R,ugm-3,61,R,ugm-3,,,,14,R,ugm-3,,,,5,R,ugm-3,,,
03-01-2008,19:00,0.2,R,mgm-3,34,R,ugm-3 (GRAV EQ),13,R,ugm-3,52,R,ugm-3,71,R,ugm-3,,,,8,R,ugm-3,,,,5,R,ugm-3,,,
03-01-2008,20:00,0.2,R,mgm-3,31,R,ugm-3 (GRAV EQ),6,R,ugm-3,40,R,ugm-3,50,R,ugm-3,,,,16,R,ugm-3,,,,5,R,ugm-3,,,
03-01-2008,21:00,0.2,R,mgm-3,33,R,ugm-3 (GRAV EQ),6,R,ugm-3,38,R,ugm-3,48,R,ugm-3,,,,14,R,ugm-3,,,,3,R,ugm-3,,,
03-01-2008,22:00,0.2,R,mgm-3,33,R,ugm-3 (GRAV EQ),4,R,ugm-3,36,R,ugm-3,42,R,ugm-3,,,,18,R,ugm-3,,,,3,R,ugm-3,,,
03-01-2008,23:00,0.2,R,mgm-3,34,R,ugm-3 (GRAV EQ),4,R,ugm-3,38,R,ugm-3,44,R,ugm-3,,,,12,R,ugm-3,,,,5,R,ugm-3,,,
03-01-2008,24:00,0.2,R,mgm-3,29,R,ugm-3 (GRAV EQ),4,R,ugm-3,36,R,ugm-3,42,R,ugm-3,,,,10,R,ugm-3,,,,5,R,ugm-3,,,
04-01-2008,01:00,0.2,R,mgm-3,25,R,ugm-3 (GRAV EQ),1,R,ugm-3,32,R,ugm-3,34,R,ugm-3,,,,12,R,ugm-3,,,,5,R,ugm-3,,,
04-01-2008,02:00,,,,,,,,,,,,,,,,,,,,,,,,,,,,,,
04-01-2008,03:00,,,,,,,,,,,,,,,,,,,,,,,,,,,,,,
04-01-2008,04:00,,,,22,R,ugm-3 (GRAV EQ),3,R,ugm-3,32,R,ugm-3,36,R,ugm-3,,,,10,R,ugm-3,,,,5,R,ugm-3,,,
04-01-2008,05:00,,,,21,R,ugm-3 (GRAV EQ),6,R,ugm-3,34,R,ugm-3,44,R,ugm-3,,,,6,R,ugm-3,,,,3,R,ugm-3,,,
04-01-2008,06:00,0.1,R,mgm-3,17,R,ugm-3 (GRAV EQ),8,R,ugm-3,38,R,ugm-3,50,R,ugm-3,,,,4,R,ugm-3,,,,3,R,ugm-3,,,
04-01-2008,07:00,0.2,R,mgm-3,16,R,ugm-3 (GRAV EQ),15,R,ugm-3,40,R,ugm-3,63,R,ugm-3,,,,2,R,ugm-3,,,,5,R,ugm-3,,,
04-01-2008,08:00,0.2,R,mgm-3,16,R,ugm-3 (GRAV EQ),33,R,ugm-3,40,R,ugm-3,90,R,ugm-3,,,,0,R,ugm-3,,,,5,R,ugm-3,,,
04-01-2008,09:00,0.2,R,mgm-3,18,R,ugm-3 (GRAV EQ),40,R,ugm-3,46,R,ugm-3,107,R,ugm-3,,,,0,R,ugm-3,,,,5,R,ugm-3,,,
04-01-2008,10:00,0.2,R,mgm-3,23,R,ugm-3 (GRAV EQ),39,R,ugm-3,44,R,ugm-3,103,R,ugm-3,,,,0,R,ugm-3,,,,8,R,ugm-3,,,
04-01-2008,11:00,0.2,R,mgm-3,25,R,ugm-3 (GRAV EQ),31,R,ugm-3,42,R,ugm-3,90,R,ugm-3,,,,0,R,ugm-3,,,,8,R,ugm-3,,,
04-01-2008,12:00,0.2,R,mgm-3,38,R,ugm-3 (GRAV EQ),31,R,ugm-3,42,R,ugm-3,90,R,ugm-3,,,,2,R,ugm-3,,,,11,R,ugm-3,,,
04-01-2008,13:00,0.2,R,mgm-3,21,R,ugm-3 (GRAV EQ),35,R,ugm-3,46,R,ugm-3,99,R,ugm-3,,,,2,R,ugm-3,,,,8,R,ugm-3,,,
04-01-2008,14:00,0.2,R,mgm-3,20,R,ugm-3 (GRAV EQ),35,R,ugm-3,55,R,ugm-3,109,R,ugm-3,,,,2,R,ugm-3,,,,11,R,ugm-3,,,
04-01-2008,15:00,0.2,R,mgm-3,22,R,ugm-3 (GRAV EQ),20,R,ugm-3,53,R,ugm-3,84,R,ugm-3,,,,4,R,ugm-3,,,,16,R,ugm-3,,,
04-01-2008,16:00,0.2,R,mgm-3,16,R,ugm-3 (GRAV EQ),16,R,ugm-3,50,R,ugm-3,74,R,ugm-3,,,,6,R,ugm-3,,,,16,R,ugm-3,,,
04-01-2008,17:00,0.2,R,mgm-3,12,R,ugm-3 (GRAV EQ),16,R,ugm-3,46,R,ugm-3,71,R,ugm-3,,,,2,R,ugm-3,,,,8,R,ugm-3,,,
04-01-2008,18:00,0.2,R,mgm-3,21,R,ugm-3 (GRAV EQ),19,R,ugm-3,52,R,ugm-3,80,R,ugm-3,,,,0,R,ugm-3,,,,5,R,ugm-3,,,
04-01-2008,19:00,0.2,R,mgm-3,16,R,ugm-3 (GRAV EQ),8,R,ugm-3,52,R,ugm-3,63,R,ugm-3,,,,8,R,ugm-3,,,,5,R,ugm-3,,,
04-01-2008,20:00,0.1,R,mgm-3,8,R,ugm-3 (GRAV EQ),3,R,ugm-3,32,R,ugm-3,36,R,ugm-3,,,,28,R,ugm-3,,,,3,R,ugm-3,,,
04-01-2008,21:00,0.1,R,mgm-3,12,R,ugm-3 (GRAV EQ),3,R,ugm-3,34,R,ugm-3,38,R,ugm-3,,,,28,R,ugm-3,,,,3,R,ugm-3,,,
04-01-2008,22:00,0.1,R,mgm-3,5,R,ugm-3 (GRAV EQ),1,R,ugm-3,21,R,ugm-3,23,R,ugm-3,,,,38,R,ugm-3,,,,3,R,ugm-3,,,
04-01-2008,23:00,0.1,R,mgm-3,3,R,ugm-3 (GRAV EQ),1,R,ugm-3,25,R,ugm-3,27,R,ugm-3,,,,42,R,ugm-3,,,,0,R,ugm-3,,,
04-01-2008,24:00,0.1,R,mgm-3,1,R,ugm-3 (GRAV EQ),3,R,ugm-3,23,R,ugm-3,27,R,ugm-3,,,,50,R,ugm-3,,,,0,R,ugm-3,,,
05-01-2008,01:00,0.1,R,mgm-3,8,R,ugm-3 (GRAV EQ),1,R,ugm-3,17,R,ugm-3,19,R,ugm-3,,,,54,R,ugm-3,,,,0,R,ugm-3,,,
05-01-2008,02:00,0.1,R,mgm-3,10,R,ugm-3 (GRAV EQ),0,R,ugm-3,15,R,ugm-3,15,R,ugm-3,,,,56,R,ugm-3,,,,0,R,ugm-3,,,
05-01-2008,03:00,0.1,R,mgm-3,10,R,ugm-3 (GRAV EQ),0,R,ugm-3,13,R,ugm-3,13,R,ugm-3,,,,54,R,ugm-3,,,,0,R,ugm-3,,,
05-01-2008,04:00,0.1,R,mgm-3,9,R,ugm-3 (GRAV EQ),0,R,ugm-3,15,R,ugm-3,15,R,ugm-3,,,,54,R,ugm-3,,,,0,R,ugm-3,,,
05-01-2008,05:00,0.1,R,mgm-3,12,R,ugm-3 (GRAV EQ),1,R,ugm-3,21,R,ugm-3,23,R,ugm-3,,,,50,R,ugm-3,,,,0,R,ugm-3,,,
05-01-2008,06:00,0.1,R,mgm-3,13,R,ugm-3 (GRAV EQ),1,R,ugm-3,13,R,ugm-3,15,R,ugm-3,,,,56,R,ugm-3,,,,0,R,ugm-3,,,
05-01-2008,07:00,0.1,R,mgm-3,17,R,ugm-3 (GRAV EQ),0,R,ugm-3,17,R,ugm-3,17,R,ugm-3,,,,56,R,ugm-3,,,,0,R,ugm-3,,,
05-01-2008,08:00,0.1,R,mgm-3,21,R,ugm-3 (GRAV EQ),3,R,ugm-3,29,R,ugm-3,32,R,ugm-3,,,,50,R,ugm-3,,,,0,R,ugm-3,,,
05-01-2008,09:00,0.1,R,mgm-3,16,R,ugm-3 (GRAV EQ),1,R,ugm-3,31,R,ugm-3,32,R,ugm-3,,,,48,R,ugm-3,,,,0,R,ugm-3,,,
05-01-2008,10:00,0.1,R,mgm-3,17,R,ugm-3 (GRAV EQ),3,R,ugm-3,44,R,ugm-3,48,R,ugm-3,,,,34,R,ugm-3,,,,3,R,ugm-3,,,
05-01-2008,11:00,0.1,R,mgm-3,18,R,ugm-3 (GRAV EQ),4,R,ugm-3,38,R,ugm-3,44,R,ugm-3,,,,42,R,ugm-3,,,,3,R,ugm-3,,,
05-01-2008,12:00,0.1,R,mgm-3,25,R,ugm-3 (GRAV EQ),4,R,ugm-3,32,R,ugm-3,38,R,ugm-3,,,,44,R,ugm-3,,,,5,R,ugm-3,,,
05-01-2008,13:00,0.1,R,mgm-3,26,R,ugm-3 (GRAV EQ),6,R,ugm-3,32,R,ugm-3,42,R,ugm-3,,,,42,R,ugm-3,,,,3,R,ugm-3,,,
05-01-2008,14:00,0.1,R,mgm-3,26,R,ugm-3 (GRAV EQ),3,R,ugm-3,27,R,ugm-3,31,R,ugm-3,,,,50,R,ugm-3,,,,3,R,ugm-3,,,
05-01-2008,15:00,0.1,R,mgm-3,18,R,ugm-3 (GRAV EQ),1,R,ugm-3,31,R,ugm-3,32,R,ugm-3,,,,50,R,ugm-3,,,,3,R,ugm-3,,,
05-01-2008,16:00,0.1,R,mgm-3,18,R,ugm-3 (GRAV EQ),3,R,ugm-3,40,R,ugm-3,44,R,ugm-3,,,,42,R,ugm-3,,,,3,R,ugm-3,,,
05-01-2008,17:00,0.1,R,mgm-3,23,R,ugm-3 (GRAV EQ),4,R,ugm-3,53,R,ugm-3,59,R,ugm-3,,,,30,R,ugm-3,,,,5,R,ugm-3,,,
05-01-2008,18:00,0.1,R,mgm-3,29,R,ugm-3 (GRAV EQ),5,R,ugm-3,57,R,ugm-3,65,R,ugm-3,,,,20,R,ugm-3,,,,8,R,ugm-3,,,
05-01-2008,19:00,0.1,R,mgm-3,22,R,ugm-3 (GRAV EQ),6,R,ugm-3,61,R,ugm-3,71,R,ugm-3,,,,20,R,ugm-3,,,,5,R,ugm-3,,,
05-01-2008,20:00,0.1,R,mgm-3,20,R,ugm-3 (GRAV EQ),3,R,ugm-3,53,R,ugm-3,57,R,ugm-3,,,,26,R,ugm-3,,,,3,R,ugm-3,,,
05-01-2008,21:00,0.1,R,mgm-3,21,R,ugm-3 (GRAV EQ),3,R,ugm-3,52,R,ugm-3,55,R,ugm-3,,,,26,R,ugm-3,,,,3,R,ugm-3,,,
05-01-2008,22:00,0.1,R,mgm-3,21,R,ugm-3 (GRAV EQ),4,R,ugm-3,42,R,ugm-3,48,R,ugm-3,,,,32,R,ugm-3,,,,3,R,ugm-3,,,
05-01-2008,23:00,0.1,R,mgm-3,23,R,ugm-3 (GRAV EQ),1,R,ugm-3,34,R,ugm-3,36,R,ugm-3,,,,40,R,ugm-3,,,,0,R,ugm-3,,,
05-01-2008,24:00,0.1,R,mgm-3,23,R,ugm-3 (GRAV EQ),1,R,ugm-3,32,R,ugm-3,34,R,ugm-3,,,,36,R,ugm-3,,,,0,R,ugm-3,,,
06-01-2008,01:00,0.1,R,mgm-3,22,R,ugm-3 (GRAV EQ),1,R,ugm-3,32,R,ugm-3,34,R,ugm-3,,,,32,R,ugm-3,,,,3,R,ugm-3,,,
06-01-2008,02:00,,,,,,,,,,,,,,,,,,,,,,,,,,,,,,
06-01-2008,03:00,,,,,,,,,,,,,,,,,,,,,,,,,,,,,,
06-01-2008,04:00,,,,,,,,,,,,,,,,,,,,,,,,,,,,,,
06-01-2008,05:00,,,,26,R,ugm-3 (GRAV EQ),1,R,ugm-3,15,R,ugm-3,17,R,ugm-3,,,,54,R,ugm-3,,,,3,R,ugm-3,,,
06-01-2008,06:00,0.1,R,mgm-3,22,R,ugm-3 (GRAV EQ),1,R,ugm-3,19,R,ugm-3,21,R,ugm-3,,,,50,R,ugm-3,,,,3,R,ugm-3,,,
06-01-2008,07:00,0.1,R,mgm-3,18,R,ugm-3 (GRAV EQ),1,R,ugm-3,19,R,ugm-3,21,R,ugm-3,,,,46,R,ugm-3,,,,3,R,ugm-3,,,
06-01-2008,08:00,0.1,R,mgm-3,17,R,ugm-3 (GRAV EQ),0,R,ugm-3,19,R,ugm-3,19,R,ugm-3,,,,44,R,ugm-3,,,,5,R,ugm-3,,,
06-01-2008,09:00,0.1,R,mgm-3,18,R,ugm-3 (GRAV EQ),1,R,ugm-3,31,R,ugm-3,32,R,ugm-3,,,,32,R,ugm-3,,,,5,R,ugm-3,,,
06-01-2008,10:00,0.1,R,mgm-3,21,R,ugm-3 (GRAV EQ),4,R,ugm-3,34,R,ugm-3,40,R,ugm-3,,,,26,R,ugm-3,,,,8,R,ugm-3,,,
06-01-2008,11:00,0.1,R,mgm-3,22,R,ugm-3 (GRAV EQ),4,R,ugm-3,27,R,ugm-3,32,R,ugm-3,,,,32,R,ugm-3,,,,8,R,ugm-3,,,
06-01-2008,12:00,0.1,R,mgm-3,23,R,ugm-3 (GRAV EQ),6,R,ugm-3,31,R,ugm-3,40,R,ugm-3,,,,30,R,ugm-3,,,,8,R,ugm-3,,,
06-01-2008,13:00,0.1,R,mgm-3,21,R,ugm-3 (GRAV EQ),5,R,ugm-3,31,R,ugm-3,38,R,ugm-3,,,,34,R,ugm-3,,,,11,R,ugm-3,,,
06-01-2008,14:00,0.1,R,mgm-3,25,R,ugm-3 (GRAV EQ),6,R,ugm-3,36,R,ugm-3,46,R,ugm-3,,,,30,R,ugm-3,,,,13,R,ugm-3,,,
06-01-2008,15:00,0.1,R,mgm-3,20,R,ugm-3 (GRAV EQ),3,R,ugm-3,25,R,ugm-3,29,R,ugm-3,,,,42,R,ugm-3,,,,5,R,ugm-3,,,
06-01-2008,16:00,0.1,R,mgm-3,22,R,ugm-3 (GRAV EQ),3,R,ugm-3,32,R,ugm-3,36,R,ugm-3,,,,32,R,ugm-3,,,,5,R,ugm-3,,,
06-01-2008,17:00,0.2,R,mgm-3,21,R,ugm-3 (GRAV EQ),4,R,ugm-3,48,R,ugm-3,53,R,ugm-3,,,,20,R,ugm-3,,,,8,R,ugm-3,,,
06-01-2008,18:00,0.2,R,mgm-3,23,R,ugm-3 (GRAV EQ),3,R,ugm-3,46,R,ugm-3,50,R,ugm-3,,,,22,R,ugm-3,,,,8,R,ugm-3,,,
06-01-2008,19:00,0.1,R,mgm-3,23,R,ugm-3 (GRAV EQ),3,R,ugm-3,38,R,ugm-3,42,R,ugm-3,,,,26,R,ugm-3,,,,5,R,ugm-3,,,
06-01-2008,20:00,0.2,R,mgm-3,25,R,ugm-3 (GRAV EQ),3,R,ugm-3,38,R,ugm-3,42,R,ugm-3,,,,28,R,ugm-3,,,,5,R,ugm-3,,,
06-01-2008,21:00,0.2,R,mgm-3,13,R,ugm-3 (GRAV EQ),3,R,ugm-3,32,R,ugm-3,36,R,ugm-3,,,,30,R,ugm-3,,,,5,R,ugm-3,,,
06-01-2008,22:00,0.2,R,mgm-3,8,R,ugm-3 (GRAV EQ),1,R,ugm-3,31,R,ugm-3,32,R,ugm-3,,,,32,R,ugm-3,,,,3,R,ugm-3,,,
06-01-2008,23:00,0.1,R,mgm-3,12,R,ugm-3 (GRAV EQ),1,R,ugm-3,27,R,ugm-3,29,R,ugm-3,,,,40,R,ugm-3,,,,8,R,ugm-3,,,
06-01-2008,24:00,0.1,R,mgm-3,14,R,ugm-3 (GRAV EQ),1,R,ugm-3,15,R,ugm-3,17,R,ugm-3,,,,50,R,ugm-3,,,,5,R,ugm-3,,,
07-01-2008,01:00,0.1,R,mgm-3,0,R,ugm-3 (GRAV EQ),1,R,ugm-3,17,R,ugm-3,19,R,ugm-3,,,,54,R,ugm-3,,,,5,R,ugm-3,,,
07-01-2008,02:00,,,,,,,,,,,,,,,,,,,,,,,,,,,,,,
07-01-2008,03:00,,,,,,,,,,,,,,,,,,,,,,,,,,,,,,
07-01-2008,04:00,,,,,,,,,,,,,,,,,,,,,,,,,,,,,,
07-01-2008,05:00,0.1,R,mgm-3,18,R,ugm-3 (GRAV EQ),1,R,ugm-3,11,R,ugm-3,13,R,ugm-3,,,,68,R,ugm-3,,,,3,R,ugm-3,,,
07-01-2008,06:00,0.1,R,mgm-3,18,R,ugm-3 (GRAV EQ),0,R,ugm-3,11,R,ugm-3,11,R,ugm-3,,,,68,R,ugm-3,,,,0,R,ugm-3,,,
07-01-2008,07:00,0.1,R,mgm-3,22,R,ugm-3 (GRAV EQ),0,R,ugm-3,10,R,ugm-3,10,R,ugm-3,,,,60,R,ugm-3,,,,0,R,ugm-3,,,
07-01-2008,08:00,0.1,R,mgm-3,25,R,ugm-3 (GRAV EQ),1,R,ugm-3,15,R,ugm-3,17,R,ugm-3,,,,52,R,ugm-3,,,,0,R,ugm-3,,,
07-01-2008,09:00,0.1,R,mgm-3,25,R,ugm-3 (GRAV EQ),4,R,ugm-3,25,R,ugm-3,31,R,ugm-3,,,,44,R,ugm-3,,,,0,R,ugm-3,,,
07-01-2008,10:00,0.1,R,mgm-3,20,R,ugm-3 (GRAV EQ),8,R,ugm-3,34,R,ugm-3,46,R,ugm-3,,,,36,R,ugm-3,,,,0,R,ugm-3,,,
07-01-2008,11:00,0.1,R,mgm-3,16,R,ugm-3 (GRAV EQ),3,R,ugm-3,27,R,ugm-3,31,R,ugm-3,,,,50,R,ugm-3,,,,0,R,ugm-3,,,
07-01-2008,12:00,0.1,R,mgm-3,21,R,ugm-3 (GRAV EQ),3,R,ugm-3,27,R,ugm-3,31,R,ugm-3,,,,52,R,ugm-3,,,,0,R,ugm-3,,,
07-01-2008,13:00,0.1,R,mgm-3,29,R,ugm-3 (GRAV EQ),4,R,ugm-3,34,R,ugm-3,40,R,ugm-3,,,,44,R,ugm-3,,,,0,R,ugm-3,,,
07-01-2008,14:00,0.1,R,mgm-3,22,R,ugm-3 (GRAV EQ),6,R,ugm-3,38,R,ugm-3,48,R,ugm-3,,,,36,R,ugm-3,,,,0,R,ugm-3,,,
07-01-2008,15:00,0.1,R,mgm-3,14,R,ugm-3 (GRAV EQ),3,R,ugm-3,29,R,ugm-3,32,R,ugm-3,,,,46,R,ugm-3,,,,0,R,ugm-3,,,
07-01-2008,16:00,0.1,R,mgm-3,20,R,ugm-3 (GRAV EQ),3,R,ugm-3,31,R,ugm-3,34,R,ugm-3,,,,42,R,ugm-3,,,,0,R,ugm-3,,,
07-01-2008,17:00,0.1,R,mgm-3,20,R,ugm-3 (GRAV EQ),4,R,ugm-3,32,R,ugm-3,38,R,ugm-3,,,,40,R,ugm-3,,,,0,R,ugm-3,,,
07-01-2008,18:00,0.1,R,mgm-3,22,R,ugm-3 (GRAV EQ),3,R,ugm-3,27,R,ugm-3,31,R,ugm-3,,,,42,R,ugm-3,,,,0,R,ugm-3,,,
07-01-2008,19:00,0.1,R,mgm-3,27,R,ugm-3 (GRAV EQ),1,R,ugm-3,32,R,ugm-3,34,R,ugm-3,,,,40,R,ugm-3,,,,0,R,ugm-3,,,
07-01-2008,20:00,0.1,R,mgm-3,25,R,ugm-3 (GRAV EQ),4,R,ugm-3,48,R,ugm-3,53,R,ugm-3,,,,24,R,ugm-3,,,,0,R,ugm-3,,,
07-01-2008,21:00,0.1,R,mgm-3,26,R,ugm-3 (GRAV EQ),3,R,ugm-3,48,R,ugm-3,52,R,ugm-3,,,,24,R,ugm-3,,,,5,R,ugm-3,,,
07-01-2008,22:00,0.1,R,mgm-3,27,R,ugm-3 (GRAV EQ),3,R,ugm-3,40,R,ugm-3,44,R,ugm-3,,,,32,R,ugm-3,,,,0,R,ugm-3,,,
07-01-2008,23:00,0.1,R,mgm-3,25,R,ugm-3 (GRAV EQ),3,R,ugm-3,31,R,ugm-3,34,R,ugm-3,,,,42,R,ugm-3,,,,0,R,ugm-3,,,
07-01-2008,24:00,0.1,R,mgm-3,21,R,ugm-3 (GRAV EQ),1,R,ugm-3,19,R,ugm-3,21,R,ugm-3,,,,48,R,ugm-3,,,,0,R,ugm-3,,,
08-01-2008,01:00,0.1,R,mgm-3,17,R,ugm-3 (GRAV EQ),0,R,ugm-3,11,R,ugm-3,11,R,ugm-3,,,,56,R,ugm-3,,,,0,R,ugm-3,,,
08-01-2008,02:00,,,,,,,,,,,,,,,,,,,,,,,,,,,,,,
08-01-2008,03:00,,,,17,R,ugm-3 (GRAV EQ),1,R,ugm-3,23,R,ugm-3,25,R,ugm-3,,,,42,R,ugm-3,,,,3,R,ugm-3,,,
08-01-2008,04:00,,,,,,,,,,,,,,,,,,,,,,,,,,,,,,
08-01-2008,05:00,0.1,R,mgm-3,14,R,ugm-3 (GRAV EQ),1,R,ugm-3,25,R,ugm-3,27,R,ugm-3,,,,34,R,ugm-3,,,,3,R,ugm-3,,,
08-01-2008,06:00,0.1,R,mgm-3,14,R,ugm-3 (GRAV EQ),3,R,ugm-3,36,R,ugm-3,40,R,ugm-3,,,,26,R,ugm-3,,,,3,R,ugm-3,,,
08-01-2008,07:00,0.1,R,mgm-3,14,R,ugm-3 (GRAV EQ),1,R,ugm-3,36,R,ugm-3,38,R,ugm-3,,,,28,R,ugm-3,,,,0,R,ugm-3,,,
08-01-2008,08:00,0.1,R,mgm-3,13,R,ugm-3 (GRAV EQ),9,R,ugm-3,55,R,ugm-3,69,R,ugm-3,,,,12,R,ugm-3,,,,3,R,ugm-3,,,
08-01-2008,09:00,0.2,R,mgm-3,17,R,ugm-3 (GRAV EQ),18,R,ugm-3,63,R,ugm-3,90,R,ugm-3,,,,10,R,ugm-3,,,,5,R,ugm-3,,,
08-01-2008,10:00,0.1,R,mgm-3,14,R,ugm-3 (GRAV EQ),6,R,ugm-3,55,R,ugm-3,65,R,ugm-3,,,,14,R,ugm-3,,,,3,R,ugm-3,,,
08-01-2008,11:00,0.1,R,mgm-3,17,R,ugm-3 (GRAV EQ),9,R,ugm-3,48,R,ugm-3,61,R,ugm-3,,,,18,R,ugm-3,,,,3,R,ugm-3,,,
08-01-2008,12:00,0.1,R,mgm-3,14,R,ugm-3 (GRAV EQ),8,R,ugm-3,46,R,ugm-3,57,R,ugm-3,,,,22,R,ugm-3,,,,5,R,ugm-3,,,
08-01-2008,13:00,0.1,R,mgm-3,14,R,ugm-3 (GRAV EQ),6,R,ugm-3,42,R,ugm-3,52,R,ugm-3,,,,30,R,ugm-3,,,,8,R,ugm-3,,,
08-01-2008,14:00,0.1,R,mgm-3,13,R,ugm-3 (GRAV EQ),6,R,ugm-3,36,R,ugm-3,46,R,ugm-3,,,,34,R,ugm-3,,,,3,R,ugm-3,,,
08-01-2008,15:00,0.1,R,mgm-3,12,R,ugm-3 (GRAV EQ),8,R,ugm-3,46,R,ugm-3,57,R,ugm-3,,,,28,R,ugm-3,,,,3,R,ugm-3,,,
08-01-2008,16:00,0.1,R,mgm-3,12,R,ugm-3 (GRAV EQ),3,R,ugm-3,34,R,ugm-3,38,R,ugm-3,,,,40,R,ugm-3,,,,5,R,ugm-3,,,
08-01-2008,17:00,0.1,R,mgm-3,14,R,ugm-3 (GRAV EQ),3,R,ugm-3,36,R,ugm-3,40,R,ugm-3,,,,38,R,ugm-3,,,,5,R,ugm-3,,,
08-01-2008,18:00,,,,26,R,ugm-3 (GRAV EQ),,,,,,,,,,,,,,,,,,,,,,,,
08-01-2008,19:00,0.1,R,mgm-3,,,,1,R,ugm-3,23,R,ugm-3,25,R,ugm-3,,,,54,R,ugm-3,,,,3,R,ugm-3,,,
08-01-2008,20:00,0.1,R,mgm-3,7,R,ugm-3 (GRAV EQ),1,R,ugm-3,19,R,ugm-3,21,R,ugm-3,,,,62,R,ugm-3,,,,3,R,ugm-3,,,
08-01-2008,21:00,0.1,R,mgm-3,,,,3,R,ugm-3,19,R,ugm-3,23,R,ugm-3,,,,66,R,ugm-3,,,,0,R,ugm-3,,,
08-01-2008,22:00,0.1,R,mgm-3,-3,R,ugm-3 (GRAV EQ),1,R,ugm-3,23,R,ugm-3,25,R,ugm-3,,,,64,R,ugm-3,,,,0,R,ugm-3,,,
08-01-2008,23:00,0.1,R,mgm-3,3,R,ugm-3 (GRAV EQ),1,R,ugm-3,19,R,ugm-3,21,R,ugm-3,,,,66,R,ugm-3,,,,0,R,ugm-3,,,
08-01-2008,24:00,0.1,R,mgm-3,5,R,ugm-3 (GRAV EQ),1,R,ugm-3,19,R,ugm-3,21,R,ugm-3,,,,66,R,ugm-3,,,,0,R,ugm-3,,,
09-01-2008,01:00,0.1,R,mgm-3,12,R,ugm-3 (GRAV EQ),0,R,ugm-3,15,R,ugm-3,15,R,ugm-3,,,,66,R,ugm-3,,,,0,R,ugm-3,,,
09-01-2008,02:00,,,,13,R,ugm-3 (GRAV EQ),,,,,,,,,,,,,,,,,,,,,,,,
09-01-2008,03:00,,,,14,R,ugm-3 (GRAV EQ),,,,,,,,,,,,,60,R,ugm-3,,,,5,R,ugm-3,,,
09-01-2008,04:00,0.1,R,mgm-3,16,R,ugm-3 (GRAV EQ),1,R,ugm-3,21,R,ugm-3,23,R,ugm-3,,,,56,R,ugm-3,,,,8,R,ugm-3,,,
09-01-2008,05:00,0.1,R,mgm-3,16,R,ugm-3 (GRAV EQ),1,R,ugm-3,23,R,ugm-3,25,R,ugm-3,,,,54,R,ugm-3,,,,11,R,ugm-3,,,
09-01-2008,06:00,0.1,R,mgm-3,10,R,ugm-3 (GRAV EQ),1,R,ugm-3,32,R,ugm-3,34,R,ugm-3,,,,48,R,ugm-3,,,,8,R,ugm-3,,,
09-01-2008,07:00,0.1,R,mgm-3,9,R,ugm-3 (GRAV EQ),3,R,ugm-3,40,R,ugm-3,44,R,ugm-3,,,,40,R,ugm-3,,,,5,R,ugm-3,,,
09-01-2008,08:00,0.1,R,mgm-3,12,R,ugm-3 (GRAV EQ),5,R,ugm-3,46,R,ugm-3,53,R,ugm-3,,,,32,R,ugm-3,,,,5,R,ugm-3,,,
09-01-2008,09:00,0.1,R,mgm-3,14,R,ugm-3 (GRAV EQ),8,R,ugm-3,59,R,ugm-3,71,R,ugm-3,,,,22,R,ugm-3,,,,5,R,ugm-3,,,
09-01-2008,10:00,0.1,R,mgm-3,20,R,ugm-3 (GRAV EQ),8,R,ugm-3,53,R,ugm-3,65,R,ugm-3,,,,30,R,ugm-3,,,,5,R,ugm-3,,,
09-01-2008,11:00,0.1,R,mgm-3,20,R,ugm-3 (GRAV EQ),8,R,ugm-3,44,R,ugm-3,55,R,ugm-3,,,,36,R,ugm-3,,,,8,R,ugm-3,,,
09-01-2008,12:00,0.1,R,mgm-3,21,R,ugm-3 (GRAV EQ),6,R,ugm-3,36,R,ugm-3,46,R,ugm-3,,,,40,R,ugm-3,,,,5,R,ugm-3,,,
09-01-2008,13:00,0.1,R,mgm-3,25,R,ugm-3 (GRAV EQ),6,R,ugm-3,36,R,ugm-3,46,R,ugm-3,,,,44,R,ugm-3,,,,5,R,ugm-3,,,
09-01-2008,14:00,0.1,R,mgm-3,23,R,ugm-3 (GRAV EQ),6,R,ugm-3,32,R,ugm-3,42,R,ugm-3,,,,46,R,ugm-3,,,,3,R,ugm-3,,,
09-01-2008,15:00,0.1,R,mgm-3,13,R,ugm-3 (GRAV EQ),9,R,ugm-3,48,R,ugm-3,61,R,ugm-3,,,,30,R,ugm-3,,,,5,R,ugm-3,,,
09-01-2008,16:00,0.1,R,mgm-3,10,R,ugm-3 (GRAV EQ),6,R,ugm-3,42,R,ugm-3,52,R,ugm-3,,,,38,R,ugm-3,,,,5,R,ugm-3,,,
09-01-2008,17:00,0.1,R,mgm-3,21,R,ugm-3 (GRAV EQ),8,R,ugm-3,63,R,ugm-3,74,R,ugm-3,,,,22,R,ugm-3,,,,3,R,ugm-3,,,
09-01-2008,18:00,0.1,R,mgm-3,14,R,ugm-3 (GRAV EQ),4,R,ugm-3,46,R,ugm-3,52,R,ugm-3,,,,30,R,ugm-3,,,,3,R,ugm-3,,,
09-01-2008,19:00,0.1,R,mgm-3,25,R,ugm-3 (GRAV EQ),8,R,ugm-3,61,R,ugm-3,73,R,ugm-3,,,,18,R,ugm-3,,,,3,R,ugm-3,,,
09-01-2008,20:00,0.1,R,mgm-3,18,R,ugm-3 (GRAV EQ),3,R,ugm-3,42,R,ugm-3,46,R,ugm-3,,,,32,R,ugm-3,,,,3,R,ugm-3,,,
09-01-2008,21:00,0.1,R,mgm-3,17,R,ugm-3 (GRAV EQ),5,R,ugm-3,55,R,ugm-3,63,R,ugm-3,,,,26,R,ugm-3,,,,11,R,ugm-3,,,
09-01-2008,22:00,0.1,R,mgm-3,16,R,ugm-3 (GRAV EQ),1,R,ugm-3,27,R,ugm-3,29,R,ugm-3,,,,48,R,ugm-3,,,,5,R,ugm-3,,,
09-01-2008,23:00,0.1,R,mgm-3,18,R,ugm-3 (GRAV EQ),1,R,ugm-3,23,R,ugm-3,25,R,ugm-3,,,,50,R,ugm-3,,,,3,R,ugm-3,,,
09-01-2008,24:00,0.1,R,mgm-3,13,R,ugm-3 (GRAV EQ),1,R,ugm-3,25,R,ugm-3,27,R,ugm-3,,,,48,R,ugm-3,,,,0,R,ugm-3,,,
10-01-2008,01:00,0.1,R,mgm-3,10,R,ugm-3 (GRAV EQ),1,R,ugm-3,15,R,ugm-3,17,R,ugm-3,,,,56,R,ugm-3,,,,3,R,ugm-3,,,
10-01-2008,02:00,,,,12,R,ugm-3 (GRAV EQ),,,,,,,,,,,,,,,,,,,,,,,,
10-01-2008,03:00,0.1,R,mgm-3,5,R,ugm-3 (GRAV EQ),1,R,ugm-3,21,R,ugm-3,23,R,ugm-3,,,,62,R,ugm-3,,,,3,R,ugm-3,,,